Regional Weather Roundup
Issued by NWS

Home | Current Version | Previous Version | Text Only | Print | Product List | Glossary On
Versions: 1 2 3 4 5 6 7 8 9 10 11 12 13 14 15 16 17 18 19 20 21 22 23 24 25 26 27 28 29 30 31 32 33 34 35 36 37 38 39 40 41 42 43 44 45 46 47 48 49 50
000
ASUS43 KMPX 271501
RWRMN
WEATHER ROUNDUP FOR MINNESOTA
NATIONAL WEATHER SERVICE TWIN CITIES/CHANHASSEN MN
900 AM CST TUE JAN 27 2015


NOTE: "FAIR" INDICATES FEW OR NO CLOUDS BELOW 12,000 FEET WITH NO
SIGNIFICANT WEATHER AND/OR OBSTRUCTIONS TO VISIBILITY. N/A MEANS
CURRENT SKY AND/OR WEATHER CONDITIONS ARE NOT AVAILABLE.

MNZ060>063-068>070-271600-
   Twin Cities Metro

CITY           SKY/WX    TMP DP  RH WIND       PRES   REMARKS
TWIN CITIES    CLOUDY    32  24  72 E7        30.16R WCI  26
ST PAUL        CLOUDY    32  25  75 E3        30.17R
CRYSTAL        CLOUDY    33  25  72 E6        30.14R WCI  28
BLAINE         CLOUDY    34  27  75 E5        30.15R WCI  30
LAKEVILLE      CLOUDY    30  27  86 E6        30.15R WCI  24
EDEN PRAIRIE   CLOUDY    33  26  75 E3        30.13R
SOUTH ST PAUL  CLOUDY    32  25  76 NE3       30.16R
LAKE ELMO      CLOUDY    32  27  80 CALM      30.16R
$$
MNZ001>005-007-008-013>017-022>024-027-028-271600-
   Northwest Minnesota

CITY           SKY/WX    TMP DP  RH WIND       PRES   REMARKS
BEMIDJI        CLOUDY    25  24  98 S8        30.07R WCI  16
HALLOCK        FOG       27  25  93 S9        30.02F VSB 1/2 WCI  17
ROSEAU         CLOUDY    25  19  80 S6        30.05S HAZE    WCI  18
WARROAD        CLOUDY    21  18  86 S3        30.06F FOG
THIEF RVR FALL CLOUDY    25  25 100 S7        30.06S VSB 1/2 WCI  17
CROOKSTON      FOG       27  27 100 S8        30.08S VSB 3/4 WCI  18
FOSSTON        CLOUDY    23  21  93 CALM      30.07R
DETROIT LAKES  CLOUDY    28  27  93 S10       30.07S FOG     WCI  19
MOORHEAD       CLOUDY    28  28 100 S15       30.07F FOG     WCI  17
PARK RAPIDS    CLOUDY    27  25  92 S8        30.07S WCI  19
MAHNOMEN       CLOUDY    25  24  96 S7        30.06R WCI  17
$$
MNZ006-009>011-018-025>026-271600-
   North Central Minnesota

CITY           SKY/WX    TMP DP  RH WIND       PRES   REMARKS
BAUDETTE       CLOUDY    24  22  91 S10       30.07R FOG     WCI  14
INTL FALLS     CLOUDY    23  20  88 VRB6      30.08R WCI  16
WASKISH        CLOUDY    25  25 100 SE6       30.08R WCI  18
BIG FORK       CLOUDY    27  23  86 S8        30.09R WCI  18
LONGVILLE      CLOUDY    28  25  86 S6        30.09F WCI  22
GRAND RAPIDS   CLOUDY    25  19  80 S8        30.09S WCI  16
CRANE LAKE     CLOUDY    21  21 100 S5        30.12S WCI  15
ORR            CLOUDY    23  19  86 CALM      30.07S
COOK           CLOUDY    23  21  93 CALM      30.10S
WALKER         CLOUDY    26  24  91 SE5       30.08R WCI  20
$$
MNZ012-019>021-037-271600-
   Northeast Minnesota

CITY           SKY/WX    TMP DP  RH WIND       PRES   REMARKS
DULUTH         CLOUDY    25  21  85 SE3       30.10S
ELY            CLOUDY    23  21  93 SW5       30.09S WCI  17
HIBBING        CLOUDY    25  21  85 S3        30.10R
EVELETH        CLOUDY    25  23  93 S6        30.12R WCI  18
DULUTH HARBOR  CLOUDY    28  25  86 CALM      30.17R
TWO HARBORS    CLOUDY    28  23  80 CALM      30.11S
SILVER BAY     CLOUDY    25  21  86 CALM      30.11R
GRAND MARAIS     N/A     25  20  81 NW3       30.15R
G MARAIS ARPRT CLOUDY    18  14  86 CALM      30.08R
$$
MNZ029>031-032-039>041-046>048-054>057-064-271600-
   West Central Minnesota

CITY           SKY/WX    TMP DP  RH WIND       PRES   REMARKS
FERGUS FALLS   FOG       27  27 100 SE9       30.11F VSB 1/2 WCI  17
WHEATON        FOG       27  27 100 SE9       30.11S VSB 1/4 WCI  17
MORRIS         CLOUDY    28  28 100 SE13      30.10S FOG     WCI  18
ALEXANDRIA     CLOUDY    29  26  89 SE9       30.10R WCI  20
ELBOW LAKE     CLOUDY    27  27 100 SE10      30.09S FOG     WCI  17
WADENA         CLOUDY    27  25  93 SE9       30.07F WCI  17
GLENWOOD       CLOUDY    28  27  93 SE7       30.12R WCI  21
APPLETON       CLOUDY    30  28  93 S7        30.11F FOG     WCI  23
BENSON         CLOUDY    30  27  86 S5        30.12R WCI  25
ORTONVILLE     FOG       28  27  93 SE9       30.09F VSB<1/4 WCI  20
MADISON        FOG       32  32 100 S8        30.11S VSB 1/4 WCI  25
WILLMAR        CLOUDY    32  28  86 S7        30.14R WCI  26
$$
MNZ033>034-036-042>043-049>051-058-059-271600-
   Central Minnesota

CITY           SKY/WX    TMP DP  RH WIND       PRES   REMARKS
ST CLOUD       CLOUDY    31  26  82 SE3       30.13R
SAUK CENTRE    CLOUDY    29  27  92 SE7       30.12R WCI  22
PAYNESVILLE    CLOUDY    28  26  91 E3        30.13S
AITKIN         CLOUDY    30  25  80 CALM      30.10S
PINE RIVER     CLOUDY    28  25  86 SE6       30.13S WCI  22
BRAINERD       CLOUDY    29  24  82 SE5       30.11R WCI  24
STAPLES        CLOUDY    28  25  86 S7        30.09S WCI  21
LONG PRAIRIE   CLOUDY    28  27  93 SE8       30.11S WCI  20
LITTLE FALLS   CLOUDY    30  27  86 SE6       30.11F WCI  24
LITCHFIELD     CLOUDY    32  30  93 CALM      30.14R
BUFFALO        CLOUDY    32  26  77 E5        30.15R WCI  27
MAPLE LAKE     CLOUDY    33  29  84 CALM      30.14S
$$
MNZ037-044-045-052-053-271600-
   East Central Minnesota

CITY           SKY/WX    TMP DP  RH WIND       PRES   REMARKS
PRINCETON      CLOUDY    34  27  75 CALM      30.15R
MORA           CLOUDY    30  23  74 E5        30.15S WCI  25
CAMBRIDGE      CLOUDY    34  23  64 CALM      30.13R
RUSH CITY      CLOUDY    30  24  79 CALM      30.15R
MOOSE LAKE     CLOUDY    28  23  80 CALM      30.12S
HINCKLEY       CLOUDY    30  27  86 E3        30.14S
CLOQUET        CLOUDY    27  21  80 CALM      30.12R
MCGREGOR       CLOUDY    30  27  86 SE3       30.12R
$$
MNZ071>073-080-081-089-090-097-098-271600-
   Southwest Minnesota

CITY           SKY/WX    TMP DP  RH WIND       PRES   REMARKS
MONTEVIDEO     CLOUDY    28  28 100 SW6       30.13S WCI  22
GRANITE FALLS  CLOUDY    30  29  96 SE8       30.14S FOG     WCI  22
CANBY          FOG       29  29 100 SE8       30.11S VSB 1/4 WCI  21
MARSHALL       CLOUDY    28  27  93 CALM      30.12F VSB 1/4
REDWOOD FALLS  CLOUDY    31  28  89 S7        30.13S WCI  24
OLIVIA         CLOUDY    30  28  93 S7        30.12S WCI  23
PIPESTONE      SNOW      28  28 100 SE6       30.08R VSB<1/4 WCI  22
WINDOM         CLOUDY    30  30 100 CALM      30.13R
WORTHINGTON    CLOUDY    28  27  93 E9        30.12R VSB<1/4 WCI  20
JACKSON        SUNNY     32  30  93 CALM      30.13R
TRACY          FOG       30  30  98 SE6       30.11F VSB 1/4 WCI  24
SLAYTON        FOG       29  28  99 CALM      30.11R VSB 1/4
$$
MNZ065>067-074>077-082>085-091>093-271600-
   South Central Minnesota

CITY           SKY/WX    TMP DP  RH WIND       PRES   REMARKS
MANKATO        CLOUDY    34  25  69 CALM      30.14R
NEW ULM        CLOUDY    32  27  80 CALM      30.14R
ST JAMES       CLOUDY    34  30  86 CALM      30.15R
FAIRMONT       SUNNY     30  19  64 CALM      30.13R
GLENCOE        CLOUDY    34  30  85 CALM      30.14R
FARIBAULT      CLOUDY    34  27  75 CALM      30.14R
OWATONNA       CLOUDY    34  27  75 CALM      30.13S
WASECA         CLOUDY    32  27  80 NE5       30.14S WCI  27
ALBERT LEA     CLOUDY    34  28  80 NE5       30.12S WCI  30
$$
MNZ078>079-086>088-094>096-271600-
   Southeast Minnesota

CITY           SKY/WX    TMP DP  RH WIND       PRES   REMARKS
ROCHESTER      CLOUDY    30  24  78 NE7       30.13R WCI  23
RED WING       CLOUDY    32  25  74 E3        30.15R
STANTON        CLOUDY    33  27  79 NE6       30.14R WCI  27
DODGE CENTER   CLOUDY    30  27  86 NE3       30.13R
WINONA         CLOUDY    30  25  80 NE5       30.18R WCI  25
AUSTIN         CLOUDY    32  27  80 E3        30.13R
PRESTON        CLOUDY    28  25  87 NE7       30.13R WCI  21
$$
ABBREVIATIONS USED IN REMARKS
   TC - TEMPERATURES IN CELSIUS
  WCI - WIND CHILL INDEX
   HX - HEAT INDEX
  VSB - VISIBILITY
$$



USA.gov is the U.S. government's official web portal to all federal, state and local government web resources and services.